Regional Weather Roundup
Issued by NWS Goodland, KS

Home | Current Version | Previous Version | Graphics & Text | Print | Product List | Glossary On
Versions: 1 2 3 4 5 6 7 8 9 10 11 12 13 14 15 16 17 18 19 20 21 22 23 24 25 26 27 28 29 30 31 32 33 34 35 36 37 38 39 40 41 42 43 44 45 46 47 48 49 50
000
ASUS43 KGLD 102108
RWRGLD

GOODLAND FORECAST AREA HOURLY WEATHER ROUNDUP
NATIONAL WEATHER SERVICE GOODLAND KS
200 PM MST SAT DEC 10 2016

...OFFICIAL OBSERVATIONS...

CITY           SKY/WX    TMP DP  RH WIND       PRES   REMARKS
GOODLAND KS    CLOUDY    36  25  64 SE14      29.77F
HILL CITY KS   CLOUDY    38  24  57 S16       29.90F
IMPERIAL NEB   CLOUDY    29  22  75 S8        29.83F
MCCOOK NEB     CLOUDY    33  24  69 S10       29.86F
AKRON CO       CLOUDY    36  27  69 CALM      29.76R
BURLINGTON CO  CLOUDY    55  21  26 S13       29.75F
LIMON CO       CLOUDY    61  17  18 SW16      29.74F
$$

...UNOFFICIAL OBSERVATIONS...

CITY           SKY/WX    TMP DP  RH WIND       PRES   REMARKS
COLBY KS       SUNNY     34  28  80 SE16      29.84S
LENORA KS        N/A     36  32  85 MISG        N/A
NORTON KS      SUNNY     36  19  51 SE10G18   29.89F
SHARON SPRINGS   N/A     42  30  62 SE14        N/A
TRENTON NEB      N/A     30  32 100 S7          N/A
KIT CARSON CO    N/A     56  27  32 MISG        N/A
YUMA CO        FAIR      30  23  74 CALM      29.78S
$$



USA.gov is the U.S. government's official web portal to all federal, state and local government web resources and services.